Time,TemperatureF,DewpointF,PressureIn,WindDirection,WindDirectionDegrees,WindSpeedMPH,WindSpeedGustMPH,Humidity,HourlyPrecipIn,Conditions,Clouds,dailyrainin,SoftwareType,DateUTC
2013-05-06 00:00:00,44.0,36.9,30.32,SSW,206,0.0,0.0,76,0.00,CLR,,0.00,WeatherDisplay:10.37,2013-05-06 04:00:00,
2013-05-06 00:05:00,43.9,36.8,30.32,SSW,206,0.0,0.0,76,0.00,CLR,,0.00,WeatherDisplay:10.37,2013-05-06 04:05:00,
2013-05-06 00:10:00,43.7,38.6,30.32,SSW,206,0.0,0.0,82,0.00,CLR,,0.00,WeatherDisplay:10.37,2013-05-06 04:10:00,
2013-05-06 00:15:00,43.5,38.4,30.32,SSW,206,0.0,0.0,82,0.00,CLR,,0.00,WeatherDisplay:10.37,2013-05-06 04:15:00,
2013-05-06 00:20:00,43.4,38.3,30.32,SSW,206,0.0,0.0,82,0.00,CLR,,0.00,WeatherDisplay:10.37,2013-05-06 04:20:00,
2013-05-06 00:25:00,43.2,38.1,30.32,SSW,206,0.0,0.0,82,0.00,CLR,,0.00,WeatherDisplay:10.37,2013-05-06 04:25:00,
2013-05-06 00:30:00,42.9,37.8,30.32,SSW,206,0.0,0.0,82,0.00,CLR,,0.00,WeatherDisplay:10.37,2013-05-06 04:30:00,
2013-05-06 00:35:00,42.8,37.7,30.32,SSW,206,0.0,0.0,82,0.00,CLR,,0.00,WeatherDisplay:10.37,2013-05-06 04:35:00,
2013-05-06 00:40:00,42.7,37.6,30.32,SSW,206,0.0,0.0,82,0.00,CLR,,0.00,WeatherDisplay:10.37,2013-05-06 04:40:00,
2013-05-06 00:45:00,42.6,37.5,30.32,SSW,206,0.0,0.0,82,0.00,CLR,,0.00,WeatherDisplay:10.37,2013-05-06 04:45:00,
2013-05-06 00:50:00,42.5,37.4,30.32,SSW,206,0.0,0.0,82,0.00,CLR,,0.00,WeatherDisplay:10.37,2013-05-06 04:50:00,
2013-05-06 00:55:00,42.3,37.2,30.32,SSW,206,0.0,0.0,82,0.00,CLR,,0.00,WeatherDisplay:10.37,2013-05-06 04:55:00,
2013-05-06 01:00:00,42.1,37.0,30.32,SSW,206,0.0,0.0,82,0.00,CLR,,0.00,WeatherDisplay:10.37,2013-05-06 05:00:00,
2013-05-06 01:05:00,42.1,37.0,30.31,SSW,206,0.0,0.0,82,0.00,CLR,,0.00,WeatherDisplay:10.37,2013-05-06 05:05:00,
2013-05-06 01:10:00,41.8,38.5,30.31,SSW,206,0.0,0.0,88,0.00,CLR,,0.00,WeatherDisplay:10.37,2013-05-06 05:10:00,
2013-05-06 01:15:00,41.7,38.4,30.31,SSW,206,0.0,0.0,88,0.00,CLR,,0.00,WeatherDisplay:10.37,2013-05-06 05:15:00,
2013-05-06 01:20:00,41.6,38.3,30.32,SSW,206,0.0,0.0,88,0.00,CLR,,0.00,WeatherDisplay:10.37,2013-05-06 05:20:00,
2013-05-06 01:25:00,41.3,38.0,30.31,SSW,206,0.0,0.0,88,0.00,CLR,,0.00,WeatherDisplay:10.37,2013-05-06 05:25:00,
2013-05-06 01:30:00,41.1,37.8,30.31,SSW,206,0.0,0.0,88,0.00,CLR,,0.00,WeatherDisplay:10.37,2013-05-06 05:30:00,
2013-05-06 01:35:00,41.0,37.7,30.31,SSW,206,0.0,0.0,88,0.00,CLR,,0.00,WeatherDisplay:10.37,2013-05-06 05:35:00,
2013-05-06 01:40:00,40.9,37.6,30.31,SSW,206,0.0,0.0,88,0.00,CLR,,0.00,WeatherDisplay:10.37,2013-05-06 05:40:00,
2013-05-06 01:45:00,40.7,37.5,30.31,SSW,206,0.0,0.0,88,0.00,CLR,,0.00,WeatherDisplay:10.37,2013-05-06 05:45:00,
2013-05-06 01:50:00,40.8,37.5,30.31,SSW,206,0.0,0.0,88,0.00,CLR,,0.00,WeatherDisplay:10.37,2013-05-06 05:50:00,
2013-05-06 01:55:00,40.6,37.3,30.31,SSW,206,0.0,0.0,88,0.00,CLR,,0.00,WeatherDisplay:10.37,2013-05-06 05:55:00,
2013-05-06 02:00:00,40.6,37.3,30.31,SSW,206,0.0,0.0,88,0.00,CLR,,0.00,WeatherDisplay:10.37,2013-05-06 06:00:00,
2013-05-06 02:05:00,40.4,37.1,30.30,SSW,206,0.0,0.0,88,0.00,CLR,,0.00,WeatherDisplay:10.37,2013-05-06 06:05:00,
2013-05-06 02:10:00,40.4,38.3,30.31,SSW,206,0.0,0.0,92,0.00,CLR,,0.00,WeatherDisplay:10.37,2013-05-06 06:10:00,
2013-05-06 02:15:00,40.3,38.2,30.31,SSW,206,0.0,0.0,92,0.00,CLR,,0.00,WeatherDisplay:10.37,2013-05-06 06:15:00,
2013-05-06 02:20:00,40.1,38.0,30.31,SSW,206,0.0,0.0,92,0.00,CLR,,0.00,WeatherDisplay:10.37,2013-05-06 06:20:00,
2013-05-06 02:25:00,40.0,37.8,30.31,SSW,206,0.0,0.0,92,0.00,CLR,,0.00,WeatherDisplay:10.37,2013-05-06 06:25:00,
2013-05-06 02:30:00,39.9,37.7,30.31,SSW,206,0.0,0.0,92,0.00,CLR,,0.00,WeatherDisplay:10.37,2013-05-06 06:30:00,
2013-05-06 02:35:00,39.8,37.7,30.30,SSW,206,0.0,0.0,92,0.00,CLR,,0.00,WeatherDisplay:10.37,2013-05-06 06:35:00,
2013-05-06 02:40:00,39.8,37.6,30.30,SSW,206,0.0,0.0,92,0.00,CLR,,0.00,WeatherDisplay:10.37,2013-05-06 06:40:00,
2013-05-06 02:45:00,39.5,37.4,30.30,SSW,206,0.0,0.0,92,0.00,CLR,,0.00,WeatherDisplay:10.37,2013-05-06 06:45:00,
2013-05-06 02:50:00,39.5,37.4,30.30,SSW,206,0.0,0.0,92,0.00,CLR,,0.00,WeatherDisplay:10.37,2013-05-06 06:50:00,
2013-05-06 02:55:00,39.1,37.0,30.30,SSW,206,0.0,0.0,92,0.00,CLR,,0.00,WeatherDisplay:10.37,2013-05-06 06:55:00,
2013-05-06 03:00:00,39.0,36.9,30.30,SSW,206,0.0,0.0,92,0.00,CLR,,0.00,WeatherDisplay:10.37,2013-05-06 07:00:00,
2013-05-06 03:05:00,39.1,37.0,30.30,SSW,206,0.0,0.0,92,0.00,CLR,,0.00,WeatherDisplay:10.37,2013-05-06 07:05:00,
2013-05-06 03:10:00,39.1,36.1,30.30,SSW,206,0.0,0.0,89,0.00,OVC,,0.00,WeatherDisplay:10.37,2013-05-06 07:10:00,
2013-05-06 03:15:00,38.8,35.8,30.30,SSW,206,0.0,0.0,89,0.00,OVC,,0.00,WeatherDisplay:10.37,2013-05-06 07:15:00,
2013-05-06 03:20:00,38.6,35.7,30.30,SSW,206,0.0,0.0,89,0.00,OVC,,0.00,WeatherDisplay:10.37,2013-05-06 07:20:00,
2013-05-06 03:30:00,38.4,35.4,30.30,SSW,206,0.0,0.0,89,0.00,OVC,,0.00,WeatherDisplay:10.37,2013-05-06 07:30:00,
2013-05-06 03:35:00,38.3,35.4,30.30,SSW,206,0.0,0.0,89,0.00,OVC,,0.00,WeatherDisplay:10.37,2013-05-06 07:35:00,
2013-05-06 03:40:00,38.3,35.3,30.30,SSW,206,0.0,0.0,89,0.00,OVC,,0.00,WeatherDisplay:10.37,2013-05-06 07:40:00,
2013-05-06 03:45:00,38.7,35.7,30.31,SSW,206,0.0,0.0,89,0.00,OVC,,0.00,WeatherDisplay:10.37,2013-05-06 07:45:00,
2013-05-06 03:50:00,39.0,36.1,30.30,SSW,206,0.0,0.0,89,0.00,OVC,,0.00,WeatherDisplay:10.37,2013-05-06 07:50:00,
2013-05-06 03:55:00,39.4,36.4,30.30,SSW,206,0.0,0.0,89,0.00,OVC,,0.00,WeatherDisplay:10.37,2013-05-06 07:55:00,
2013-05-06 04:00:00,39.7,36.7,30.30,SSW,206,0.0,0.0,89,0.00,OVC,,0.00,WeatherDisplay:10.37,2013-05-06 08:00:00,
2013-05-06 04:10:00,40.2,36.9,30.30,SSW,206,0.0,0.0,88,0.00,OVC,,0.00,WeatherDisplay:10.37,2013-05-06 08:10:00,
2013-05-06 04:15:00,40.4,37.1,30.30,SSW,206,0.0,0.0,88,0.00,OVC,,0.00,WeatherDisplay:10.37,2013-05-06 08:15:00,
2013-05-06 04:20:00,41.1,37.8,30.30,SSW,206,0.0,0.0,88,0.00,OVC,,0.00,WeatherDisplay:10.37,2013-05-06 08:20:00,
2013-05-06 04:25:00,41.3,38.0,30.30,SSW,206,0.0,0.0,88,0.00,OVC,,0.00,WeatherDisplay:10.37,2013-05-06 08:25:00,
2013-05-06 04:30:00,41.2,37.9,30.30,SSW,206,0.0,0.0,88,0.00,OVC,,0.00,WeatherDisplay:10.37,2013-05-06 08:30:00,
2013-05-06 04:35:00,41.6,38.3,30.30,SSW,206,0.0,0.0,88,0.00,OVC,,0.00,WeatherDisplay:10.37,2013-05-06 08:35:00,
2013-05-06 04:40:00,41.9,38.6,30.30,SSW,206,0.0,0.0,88,0.00,OVC,,0.00,WeatherDisplay:10.37,2013-05-06 08:40:00,
2013-05-06 04:45:00,41.9,38.6,30.31,SSW,206,0.0,0.0,88,0.00,OVC,,0.00,WeatherDisplay:10.37,2013-05-06 08:45:00,
2013-05-06 04:50:00,42.1,38.8,30.31,SSW,206,0.0,0.0,88,0.00,OVC,,0.00,WeatherDisplay:10.37,2013-05-06 08:50:00,
2013-05-06 04:55:00,42.2,38.9,30.31,SSW,206,0.0,0.0,88,0.00,OVC,,0.00,WeatherDisplay:10.37,2013-05-06 08:55:00,
2013-05-06 05:00:00,42.0,38.7,30.31,SSW,206,0.0,0.0,88,0.00,OVC,,0.00,WeatherDisplay:10.37,2013-05-06 09:00:00,
2013-05-06 05:05:00,42.2,38.9,30.31,SSW,206,0.0,0.0,88,0.00,OVC,,0.00,WeatherDisplay:10.37,2013-05-06 09:05:00,
2013-05-06 05:10:00,42.1,38.8,30.31,SSW,206,0.0,0.0,88,0.00,OVC,,0.00,WeatherDisplay:10.37,2013-05-06 09:10:00,
2013-05-06 05:15:00,42.0,38.7,30.31,SSW,206,0.0,0.0,88,0.00,OVC,,0.00,WeatherDisplay:10.37,2013-05-06 09:15:00,
2013-05-06 05:20:00,42.0,38.7,30.31,SSW,206,0.0,0.0,88,0.00,OVC,,0.00,WeatherDisplay:10.37,2013-05-06 09:20:00,
2013-05-06 05:25:00,42.0,38.7,30.31,SSW,206,0.0,0.0,88,0.00,OVC,,0.00,WeatherDisplay:10.37,2013-05-06 09:25:00,
2013-05-06 05:30:00,42.2,38.9,30.31,SSW,206,0.0,0.0,88,0.00,OVC,,0.00,WeatherDisplay:10.37,2013-05-06 09:30:00,
2013-05-06 05:35:00,42.2,38.9,30.32,SSW,206,0.0,0.0,88,0.00,OVC,,0.00,WeatherDisplay:10.37,2013-05-06 09:35:00,
2013-05-06 05:40:00,42.0,38.7,30.32,SSW,206,0.0,0.0,88,0.00,OVC,,0.00,WeatherDisplay:10.37,2013-05-06 09:40:00,
2013-05-06 05:45:00,42.4,39.1,30.32,SSW,206,0.0,0.0,88,0.00,OVC,,0.00,WeatherDisplay:10.37,2013-05-06 09:45:00,
2013-05-06 05:50:00,41.8,38.5,30.32,SSW,206,0.0,0.0,88,0.00,OVC,,0.00,WeatherDisplay:10.37,2013-05-06 09:50:00,
2013-05-06 05:55:00,41.8,38.5,30.33,SSW,206,0.0,0.0,88,0.00,OVC,,0.00,WeatherDisplay:10.37,2013-05-06 09:55:00,
2013-05-06 06:00:00,41.6,38.3,30.33,SSW,206,0.0,0.0,88,0.00,OVC,,0.00,WeatherDisplay:10.37,2013-05-06 10:00:00,
2013-05-06 06:05:00,41.7,38.4,30.33,SSW,206,0.0,0.0,88,0.00,OVC,,0.00,WeatherDisplay:10.37,2013-05-06 10:05:00,
2013-05-06 06:10:00,42.2,38.9,30.33,SSW,206,0.0,0.0,88,0.00,OVC,,0.00,WeatherDisplay:10.37,2013-05-06 10:10:00,
2013-05-06 06:15:00,42.3,39.0,30.33,SSW,206,0.0,0.0,88,0.00,OVC,,0.00,WeatherDisplay:10.37,2013-05-06 10:15:00,
2013-05-06 06:20:00,42.2,38.9,30.33,SSW,206,0.0,0.0,88,0.00,OVC,,0.00,WeatherDisplay:10.37,2013-05-06 10:20:00,
2013-05-06 06:25:00,42.2,38.9,30.34,SSW,206,0.0,0.0,88,0.00,OVC,,0.00,WeatherDisplay:10.37,2013-05-06 10:25:00,
2013-05-06 06:30:00,42.2,38.9,30.34,SSW,206,0.0,0.0,88,0.00,OVC,,0.00,WeatherDisplay:10.37,2013-05-06 10:30:00,
2013-05-06 06:35:00,42.0,38.7,30.34,SSW,206,0.0,0.0,88,0.00,OVC,,0.00,WeatherDisplay:10.37,2013-05-06 10:35:00,
2013-05-06 06:40:00,41.8,38.5,30.34,SSW,206,0.0,0.0,88,0.00,OVC,,0.00,WeatherDisplay:10.37,2013-05-06 10:40:00,
2013-05-06 06:50:00,42.3,39.0,30.35,SSW,206,0.0,0.0,88,0.00,OVC,,0.00,WeatherDisplay:10.37,2013-05-06 10:50:00,
2013-05-06 06:55:00,42.1,38.8,30.35,SSW,206,0.0,0.0,88,0.00,OVC,,0.00,WeatherDisplay:10.37,2013-05-06 10:55:00,
2013-05-06 07:00:00,42.3,39.0,30.35,SSW,206,0.0,0.0,88,0.00,OVC,,0.00,WeatherDisplay:10.37,2013-05-06 11:00:00,
2013-05-06 07:05:00,42.2,38.9,30.35,SSW,206,0.0,0.0,88,0.00,OVC,,0.00,WeatherDisplay:10.37,2013-05-06 11:05:00,
2013-05-06 07:10:00,42.3,39.0,30.35,SSW,206,0.0,0.0,88,0.00,OVC,,0.00,WeatherDisplay:10.37,2013-05-06 11:10:00,
2013-05-06 07:15:00,42.4,39.1,30.35,SSW,206,0.0,0.0,88,0.00,OVC,,0.00,WeatherDisplay:10.37,2013-05-06 11:15:00,
2013-05-06 07:20:00,42.4,39.1,30.35,SSW,206,0.0,0.0,88,0.00,OVC,,0.00,WeatherDisplay:10.37,2013-05-06 11:20:00,
2013-05-06 07:25:00,42.5,39.2,30.35,SSW,206,0.0,0.0,88,0.00,OVC,,0.00,WeatherDisplay:10.37,2013-05-06 11:25:00,
2013-05-06 07:30:00,42.5,39.2,30.36,SSW,206,0.0,0.0,88,0.00,OVC,,0.00,WeatherDisplay:10.37,2013-05-06 11:30:00,
2013-05-06 07:40:00,42.8,39.5,30.36,SSW,206,0.0,0.0,88,0.00,OVC,,0.00,WeatherDisplay:10.37,2013-05-06 11:40:00,
2013-05-06 07:45:00,43.2,39.9,30.36,SSW,206,0.0,0.0,88,0.00,OVC,,0.00,WeatherDisplay:10.37,2013-05-06 11:45:00,
2013-05-06 07:50:00,43.1,39.8,30.36,SSW,206,0.0,0.0,88,0.00,OVC,,0.00,WeatherDisplay:10.37,2013-05-06 11:50:00,
2013-05-06 07:55:00,43.6,40.3,30.36,SSW,206,0.0,0.0,88,0.00,OVC,,0.00,WeatherDisplay:10.37,2013-05-06 11:55:00,
2013-05-06 08:00:00,43.6,40.2,30.36,SSW,206,0.0,0.0,88,0.00,OVC,,0.00,WeatherDisplay:10.37,2013-05-06 12:00:00,
2013-05-06 08:05:00,43.6,40.3,30.36,SSW,206,0.0,0.0,88,0.00,OVC,,0.00,WeatherDisplay:10.37,2013-05-06 12:05:00,
2013-05-06 08:15:00,43.6,38.4,30.36,SSW,206,0.0,0.0,82,0.00,OVC,,0.00,WeatherDisplay:10.37,2013-05-06 12:15:00,
2013-05-06 08:20:00,44.3,39.2,30.36,SSW,206,0.0,0.0,82,0.00,OVC,,0.00,WeatherDisplay:10.37,2013-05-06 12:20:00,
2013-05-06 08:30:00,45.0,39.9,30.36,North,4,0.0,0.0,82,0.00,OVC,,0.00,WeatherDisplay:10.37,2013-05-06 12:30:00,
2013-05-06 08:35:00,44.8,39.6,30.36,North,11,3.0,0.0,82,0.00,OVC,,0.00,WeatherDisplay:10.37,2013-05-06 12:35:00,
2013-05-06 08:40:00,45.8,40.6,30.35,North,8,0.0,0.0,82,0.00,OVC,,0.00,WeatherDisplay:10.37,2013-05-06 12:40:00,
2013-05-06 08:45:00,46.8,41.6,30.36,North,6,0.0,0.0,82,0.00,OVC,,0.00,WeatherDisplay:10.37,2013-05-06 12:45:00,
2013-05-06 08:50:00,46.4,41.2,30.36,North,9,1.0,0.0,82,0.00,OVC,,0.00,WeatherDisplay:10.37,2013-05-06 12:50:00,
2013-05-06 08:55:00,47.1,41.9,30.36,NNE,12,0.0,0.0,82,0.00,OVC,,0.00,WeatherDisplay:10.37,2013-05-06 12:55:00,
2013-05-06 09:00:00,47.2,42.0,30.36,NNE,13,0.0,0.0,82,0.00,OVC,,0.00,WeatherDisplay:10.37,2013-05-06 13:00:00,
2013-05-06 09:10:00,47.4,41.2,30.36,NW,325,0.0,0.0,79,0.00,OVC,,0.00,WeatherDisplay:10.37,2013-05-06 13:10:00,
2013-05-06 09:15:00,48.1,41.9,30.36,NW,319,0.0,0.0,79,0.00,OVC,,0.00,WeatherDisplay:10.37,2013-05-06 13:15:00,
2013-05-06 09:20:00,48.8,42.6,30.36,NW,319,0.0,0.0,79,0.00,OVC,,0.00,WeatherDisplay:10.37,2013-05-06 13:20:00,
2013-05-06 09:25:00,49.4,43.1,30.36,NW,320,0.0,0.0,79,0.00,OVC,,0.00,WeatherDisplay:10.37,2013-05-06 13:25:00,
2013-05-06 09:30:00,50.4,44.1,30.36,NW,313,0.0,0.0,79,0.00,OVC,,0.00,WeatherDisplay:10.37,2013-05-06 13:30:00,
2013-05-06 09:35:00,50.2,43.9,30.36,NW,312,1.0,0.0,79,0.00,OVC,,0.00,WeatherDisplay:10.37,2013-05-06 13:35:00,
2013-05-06 09:40:00,51.0,44.7,30.35,NW,307,0.0,0.0,79,0.00,OVC,,0.00,WeatherDisplay:10.37,2013-05-06 13:40:00,
2013-05-06 09:45:00,50.8,44.6,30.35,NNW,342,0.0,0.0,79,0.00,OVC,,0.00,WeatherDisplay:10.37,2013-05-06 13:45:00,
2013-05-06 09:50:00,51.4,45.1,30.35,North,352,0.0,0.0,79,0.00,OVC,,0.00,WeatherDisplay:10.37,2013-05-06 13:50:00,
2013-05-06 09:55:00,51.8,45.5,30.35,NNW,342,0.0,0.0,79,0.00,OVC,,0.00,WeatherDisplay:10.37,2013-05-06 13:55:00,
2013-05-06 10:00:00,53.3,46.9,30.35,NNW,342,0.0,0.0,79,0.00,OVC,,0.00,WeatherDisplay:10.37,2013-05-06 14:00:00,
2013-05-06 10:05:00,53.5,47.2,30.35,NNW,338,1.0,0.0,79,0.00,OVC,,0.00,WeatherDisplay:10.37,2013-05-06 14:05:00,
2013-05-06 10:10:00,54.1,44.9,30.35,NNW,337,0.0,0.0,71,0.00,OVC,,0.00,WeatherDisplay:10.37,2013-05-06 14:10:00,
2013-05-06 10:15:00,54.7,45.5,30.35,NNW,336,0.0,0.0,71,0.00,OVC,,0.00,WeatherDisplay:10.37,2013-05-06 14:15:00,
2013-05-06 10:20:00,55.0,45.8,30.35,NNW,345,2.0,0.0,71,0.00,OVC,,0.00,WeatherDisplay:10.37,2013-05-06 14:20:00,
2013-05-06 10:25:00,55.5,46.3,30.35,North,5,1.0,0.0,71,0.00,OVC,,0.00,WeatherDisplay:10.37,2013-05-06 14:25:00,
2013-05-06 10:30:00,55.6,46.4,30.35,NNW,330,2.0,0.0,71,0.00,OVC,,0.00,WeatherDisplay:10.37,2013-05-06 14:30:00,
2013-05-06 10:35:00,55.4,46.2,30.35,WSW,257,0.0,0.0,71,0.00,OVC,,0.00,WeatherDisplay:10.37,2013-05-06 14:35:00,
2013-05-06 10:40:00,57.0,47.7,30.34,WSW,239,1.0,0.0,71,0.00,OVC,,0.00,WeatherDisplay:10.37,2013-05-06 14:40:00,
2013-05-06 10:45:00,56.0,46.8,30.34,SSE,162,0.0,0.0,71,0.00,OVC,,0.00,WeatherDisplay:10.37,2013-05-06 14:45:00,
2013-05-06 10:50:00,57.4,48.1,30.34,SE,135,1.0,0.0,71,0.00,OVC,,0.00,WeatherDisplay:10.37,2013-05-06 14:50:00,
2013-05-06 10:55:00,57.0,47.7,30.34,SSW,202,2.0,0.0,71,0.00,OVC,,0.00,WeatherDisplay:10.37,2013-05-06 14:55:00,
2013-05-06 11:00:00,57.6,48.2,30.34,SW,223,2.0,0.0,71,0.00,OVC,,0.00,WeatherDisplay:10.37,2013-05-06 15:00:00,
2013-05-06 11:05:00,56.6,47.3,30.34,SSE,162,3.0,0.0,71,0.00,BKN,,0.00,WeatherDisplay:10.37,2013-05-06 15:05:00,
2013-05-06 11:10:00,57.3,43.9,30.33,SE,127,0.0,0.0,61,0.00,BKN,,0.00,WeatherDisplay:10.37,2013-05-06 15:10:00,
2013-05-06 11:15:00,59.1,45.7,30.33,ESE,104,1.0,0.0,61,0.00,BKN,,0.00,WeatherDisplay:10.37,2013-05-06 15:15:00,
2013-05-06 11:20:00,59.2,45.7,30.33,WSW,249,1.0,0.0,61,0.00,BKN,,0.00,WeatherDisplay:10.37,2013-05-06 15:20:00,
2013-05-06 11:25:00,59.7,46.2,30.33,WSW,249,0.0,0.0,61,0.00,BKN,,0.00,WeatherDisplay:10.37,2013-05-06 15:25:00,
2013-05-06 11:30:00,59.0,45.6,30.33,North,11,2.0,0.0,61,0.00,BKN,,0.00,WeatherDisplay:10.37,2013-05-06 15:30:00,
2013-05-06 11:35:00,60.0,46.5,30.32,NNE,29,2.0,0.0,61,0.00,SCT,,0.00,WeatherDisplay:10.37,2013-05-06 15:35:00,
2013-05-06 11:45:00,61.0,46.1,30.32,SSE,164,3.0,0.0,58,0.00,SCT,,0.00,WeatherDisplay:10.37,2013-05-06 15:45:00,
2013-05-06 11:50:00,60.6,45.8,30.32,East,95,1.0,0.0,58,0.00,SCT,,0.00,WeatherDisplay:10.37,2013-05-06 15:50:00,
2013-05-06 11:55:00,61.0,46.1,30.32,NE,46,5.0,0.0,58,0.00,SCT,,0.00,WeatherDisplay:10.37,2013-05-06 15:55:00,
2013-05-06 12:00:00,62.0,47.1,30.31,NNE,28,2.0,0.0,58,0.00,SCT,,0.00,WeatherDisplay:10.37,2013-05-06 16:00:00,
2013-05-06 12:05:00,63.0,47.9,30.31,North,7,3.0,0.0,58,0.00,SCT,,0.00,WeatherDisplay:10.37,2013-05-06 16:05:00,
2013-05-06 12:10:00,63.9,48.4,30.31,North,350,1.0,0.0,57,0.00,SCT,,0.00,WeatherDisplay:10.37,2013-05-06 16:10:00,
2013-05-06 12:15:00,64.9,49.3,30.31,North,360,1.0,0.0,57,0.00,SCT,,0.00,WeatherDisplay:10.37,2013-05-06 16:15:00,
2013-05-06 12:20:00,64.8,49.2,30.30,NNE,31,0.0,0.0,57,0.00,SCT,,0.00,WeatherDisplay:10.37,2013-05-06 16:20:00,
2013-05-06 12:25:00,65.0,49.4,30.30,NNE,16,2.0,0.0,57,0.00,SCT,,0.00,WeatherDisplay:10.37,2013-05-06 16:25:00,
2013-05-06 12:30:00,65.6,50.0,30.30,North,7,3.0,0.0,57,0.00,SCT,,0.00,WeatherDisplay:10.37,2013-05-06 16:30:00,
2013-05-06 12:35:00,65.4,49.7,30.29,North,7,1.0,0.0,57,0.00,SCT,,0.00,WeatherDisplay:10.37,2013-05-06 16:35:00,
2013-05-06 12:40:00,65.6,50.0,30.29,NNW,333,1.0,0.0,57,0.00,SCT,,0.00,WeatherDisplay:10.37,2013-05-06 16:40:00,
2013-05-06 12:45:00,66.7,51.0,30.29,West,263,1.0,0.0,57,0.00,SCT,,0.00,WeatherDisplay:10.37,2013-05-06 16:45:00,
2013-05-06 12:50:00,66.0,50.3,30.28,WSW,243,1.0,0.0,57,0.00,SCT,,0.00,WeatherDisplay:10.37,2013-05-06 16:50:00,
2013-05-06 12:55:00,67.0,51.2,30.28,WSW,239,1.0,0.0,57,0.00,SCT,,0.00,WeatherDisplay:10.37,2013-05-06 16:55:00,
2013-05-06 13:00:00,67.8,52.0,30.28,NW,305,1.0,0.0,57,0.00,SCT,,0.00,WeatherDisplay:10.37,2013-05-06 17:00:00,
2013-05-06 13:05:00,69.4,53.5,30.28,WNW,293,2.0,0.0,57,0.00,SCT,,0.00,WeatherDisplay:10.37,2013-05-06 17:05:00,
2013-05-06 13:10:00,67.8,50.1,30.27,West,279,0.0,0.0,53,0.00,SCT,,0.00,WeatherDisplay:10.37,2013-05-06 17:10:00,
2013-05-06 13:15:00,67.5,49.8,30.27,WSW,252,0.0,0.0,53,0.00,SCT,,0.00,WeatherDisplay:10.37,2013-05-06 17:15:00,
2013-05-06 13:20:00,68.9,51.0,30.27,SSW,208,0.0,0.0,53,0.00,SCT,,0.00,WeatherDisplay:10.37,2013-05-06 17:20:00,
2013-05-06 13:25:00,68.4,50.6,30.27,NNW,327,1.0,0.0,53,0.00,SCT,,0.00,WeatherDisplay:10.37,2013-05-06 17:25:00,
2013-05-06 13:30:00,69.1,51.2,30.26,NNW,327,0.0,0.0,53,0.00,SCT,,0.00,WeatherDisplay:10.37,2013-05-06 17:30:00,
2013-05-06 13:35:00,68.4,50.6,30.26,WNW,302,1.0,0.0,53,0.00,SCT,,0.00,WeatherDisplay:10.37,2013-05-06 17:35:00,
2013-05-06 13:40:00,68.8,51.0,30.26,WNW,299,0.0,0.0,53,0.00,SCT,,0.00,WeatherDisplay:10.37,2013-05-06 17:40:00,
2013-05-06 13:45:00,69.5,51.6,30.26,NW,307,3.0,0.0,53,0.00,SCT,,0.00,WeatherDisplay:10.37,2013-05-06 17:45:00,
2013-05-06 13:50:00,70.4,52.4,30.26,NW,318,3.0,0.0,53,0.00,SCT,,0.00,WeatherDisplay:10.37,2013-05-06 17:50:00,
2013-05-06 13:55:00,70.6,52.6,30.26,North,11,1.0,0.0,53,0.00,SCT,,0.00,WeatherDisplay:10.37,2013-05-06 17:55:00,
2013-05-06 14:00:00,71.3,53.3,30.26,NW,320,0.0,0.0,53,0.00,SCT,,0.00,WeatherDisplay:10.37,2013-05-06 18:00:00,
2013-05-06 14:05:00,70.7,52.7,30.25,West,273,2.0,0.0,53,0.00,CLR,,0.00,WeatherDisplay:10.37,2013-05-06 18:05:00,
2013-05-06 14:10:00,69.9,50.4,30.25,West,264,0.0,0.0,50,0.00,CLR,,0.00,WeatherDisplay:10.37,2013-05-06 18:10:00,
2013-05-06 14:15:00,69.6,50.2,30.25,NW,304,1.0,0.0,50,0.00,CLR,,0.00,WeatherDisplay:10.37,2013-05-06 18:15:00,
2013-05-06 14:20:00,69.8,50.3,30.25,North,7,3.0,0.0,50,0.00,CLR,,0.00,WeatherDisplay:10.37,2013-05-06 18:20:00,
2013-05-06 14:25:00,70.2,50.7,30.24,NNE,22,1.0,0.0,50,0.00,CLR,,0.00,WeatherDisplay:10.37,2013-05-06 18:25:00,
2013-05-06 14:30:00,71.1,51.5,30.24,North,357,0.0,0.0,50,0.00,CLR,,0.00,WeatherDisplay:10.37,2013-05-06 18:30:00,
2013-05-06 14:35:00,72.2,52.5,30.24,West,268,0.0,0.0,50,0.00,CLR,,0.00,WeatherDisplay:10.37,2013-05-06 18:35:00,
2013-05-06 14:40:00,72.2,52.5,30.23,WSW,251,0.0,0.0,50,0.00,CLR,,0.00,WeatherDisplay:10.37,2013-05-06 18:40:00,
2013-05-06 14:45:00,72.5,52.8,30.23,WSW,258,2.0,0.0,50,0.00,CLR,,0.00,WeatherDisplay:10.37,2013-05-06 18:45:00,
2013-05-06 14:50:00,72.9,53.1,30.23,West,275,2.0,0.0,50,0.00,CLR,,0.00,WeatherDisplay:10.37,2013-05-06 18:50:00,
2013-05-06 14:55:00,71.8,52.1,30.23,WNW,286,1.0,0.0,50,0.00,CLR,,0.00,WeatherDisplay:10.37,2013-05-06 18:55:00,
2013-05-06 15:00:00,72.1,52.5,30.22,NW,324,1.0,0.0,50,0.00,CLR,,0.00,WeatherDisplay:10.37,2013-05-06 19:00:00,
2013-05-06 15:05:00,72.3,52.6,30.22,WNW,291,1.0,0.0,50,0.00,CLR,,0.00,WeatherDisplay:10.37,2013-05-06 19:05:00,
2013-05-06 15:15:00,73.2,53.5,30.22,WNW,297,3.0,0.0,50,0.00,CLR,,0.00,WeatherDisplay:10.37,2013-05-06 19:15:00,
2013-05-06 15:20:00,73.3,53.6,30.22,WNW,299,0.0,0.0,50,0.00,CLR,,0.00,WeatherDisplay:10.37,2013-05-06 19:20:00,
2013-05-06 15:25:00,72.0,52.3,30.21,WNW,288,1.0,0.0,50,0.00,CLR,,0.00,WeatherDisplay:10.37,2013-05-06 19:25:00,
2013-05-06 15:30:00,71.7,52.1,30.21,WNW,302,0.0,0.0,50,0.00,CLR,,0.00,WeatherDisplay:10.37,2013-05-06 19:30:00,
2013-05-06 15:35:00,72.5,52.8,30.21,WNW,290,1.0,0.0,50,0.00,CLR,,0.00,WeatherDisplay:10.37,2013-05-06 19:35:00,
2013-05-06 15:40:00,73.0,53.2,30.21,West,270,0.0,0.0,50,0.00,CLR,,0.00,WeatherDisplay:10.37,2013-05-06 19:40:00,
2013-05-06 15:45:00,74.0,54.1,30.20,NNW,328,0.0,0.0,50,0.00,CLR,,0.00,WeatherDisplay:10.37,2013-05-06 19:45:00,
2013-05-06 15:50:00,74.0,54.1,30.20,NNW,331,2.0,0.0,50,0.00,CLR,,0.00,WeatherDisplay:10.37,2013-05-06 19:50:00,
2013-05-06 15:55:00,72.7,53.0,30.20,NW,325,0.0,0.0,50,0.00,CLR,,0.00,WeatherDisplay:10.37,2013-05-06 19:55:00,
2013-05-06 16:00:00,71.2,51.6,30.20,NNW,347,1.0,0.0,50,0.00,CLR,,0.00,WeatherDisplay:10.37,2013-05-06 20:00:00,
2013-05-06 16:05:00,72.1,52.5,30.20,North,351,1.0,0.0,50,0.00,CLR,,0.00,WeatherDisplay:10.37,2013-05-06 20:05:00,
2013-05-06 16:10:00,73.1,52.2,30.19,NNW,330,0.0,0.0,48,0.00,CLR,,0.00,WeatherDisplay:10.37,2013-05-06 20:10:00,
2013-05-06 16:15:00,73.1,52.3,30.19,NW,322,0.0,0.0,48,0.00,CLR,,0.00,WeatherDisplay:10.37,2013-05-06 20:15:00,
2013-05-06 16:20:00,73.6,52.7,30.19,NW,322,0.0,0.0,48,0.00,CLR,,0.00,WeatherDisplay:10.37,2013-05-06 20:20:00,
2013-05-06 16:25:00,73.5,52.6,30.19,NW,318,2.0,0.0,48,0.00,CLR,,0.00,WeatherDisplay:10.37,2013-05-06 20:25:00,
2013-05-06 16:30:00,72.5,51.7,30.19,NW,306,0.0,0.0,48,0.00,CLR,,0.00,WeatherDisplay:10.37,2013-05-06 20:30:00,
2013-05-06 16:35:00,72.9,52.0,30.19,WNW,296,0.0,0.0,48,0.00,CLR,,0.00,WeatherDisplay:10.37,2013-05-06 20:35:00,
2013-05-06 16:40:00,72.6,51.8,30.19,WNW,297,3.0,0.0,48,0.00,CLR,,0.00,WeatherDisplay:10.37,2013-05-06 20:40:00,
2013-05-06 16:45:00,72.4,51.6,30.19,NW,307,1.0,0.0,48,0.00,CLR,,0.00,WeatherDisplay:10.37,2013-05-06 20:45:00,
2013-05-06 16:55:00,72.3,51.5,30.19,West,260,2.0,0.0,48,0.00,CLR,,0.00,WeatherDisplay:10.37,2013-05-06 20:55:00,
2013-05-06 17:00:00,71.9,51.1,30.18,WSW,245,0.0,0.0,48,0.00,CLR,,0.00,WeatherDisplay:10.37,2013-05-06 21:00:00,
2013-05-06 17:05:00,70.9,50.2,30.18,West,261,2.0,0.0,48,0.00,CLR,,0.00,WeatherDisplay:10.37,2013-05-06 21:05:00,
2013-05-06 17:10:00,70.9,52.4,30.18,WNW,290,1.0,0.0,52,0.00,CLR,,0.00,WeatherDisplay:10.37,2013-05-06 21:10:00,
2013-05-06 17:15:00,70.5,52.0,30.18,WNW,303,1.0,0.0,52,0.00,CLR,,0.00,WeatherDisplay:10.37,2013-05-06 21:15:00,
2013-05-06 17:20:00,70.3,51.9,30.18,NW,309,0.0,0.0,52,0.00,CLR,,0.00,WeatherDisplay:10.37,2013-05-06 21:20:00,
2013-05-06 17:25:00,70.5,52.0,30.18,NW,310,2.0,0.0,52,0.00,CLR,,0.00,WeatherDisplay:10.37,2013-05-06 21:25:00,
2013-05-06 17:30:00,70.1,51.6,30.18,WNW,301,1.0,0.0,52,0.00,CLR,,0.00,WeatherDisplay:10.37,2013-05-06 21:30:00,
2013-05-06 17:35:00,70.0,51.5,30.18,WNW,302,0.0,0.0,52,0.00,CLR,,0.00,WeatherDisplay:10.37,2013-05-06 21:35:00,
2013-05-06 17:45:00,69.5,51.1,30.18,WNW,298,0.0,0.0,52,0.00,CLR,,0.00,WeatherDisplay:10.37,2013-05-06 21:45:00,
2013-05-06 17:50:00,69.5,51.1,30.18,WNW,303,1.0,0.0,52,0.00,CLR,,0.00,WeatherDisplay:10.37,2013-05-06 21:50:00,
2013-05-06 17:55:00,69.0,50.7,30.19,West,280,2.0,0.0,52,0.00,CLR,,0.00,WeatherDisplay:10.37,2013-05-06 21:55:00,
2013-05-06 18:00:00,69.1,50.7,30.18,WSW,254,0.0,0.0,52,0.00,CLR,,0.00,WeatherDisplay:10.37,2013-05-06 22:00:00,
2013-05-06 18:05:00,68.7,50.4,30.18,WSW,245,0.0,0.0,52,0.00,CLR,,0.00,WeatherDisplay:10.37,2013-05-06 22:05:00,
2013-05-06 18:10:00,68.3,50.0,30.18,West,267,0.0,0.0,52,0.00,CLR,,0.00,WeatherDisplay:10.37,2013-05-06 22:10:00,
2013-05-06 18:15:00,68.1,49.8,30.18,NW,320,0.0,0.0,52,0.00,CLR,,0.00,WeatherDisplay:10.37,2013-05-06 22:15:00,
2013-05-06 18:20:00,68.0,49.7,30.18,NW,322,2.0,0.0,52,0.00,CLR,,0.00,WeatherDisplay:10.37,2013-05-06 22:20:00,
2013-05-06 18:25:00,67.0,48.8,30.18,WSW,245,0.0,0.0,52,0.00,CLR,,0.00,WeatherDisplay:10.37,2013-05-06 22:25:00,
2013-05-06 18:30:00,66.4,48.3,30.18,SSW,194,0.0,0.0,52,0.00,CLR,,0.00,WeatherDisplay:10.37,2013-05-06 22:30:00,
2013-05-06 18:35:00,65.9,47.8,30.19,SSW,211,0.0,0.0,52,0.00,CLR,,0.00,WeatherDisplay:10.37,2013-05-06 22:35:00,
2013-05-06 18:40:00,65.5,47.4,30.19,WNW,302,0.0,0.0,52,0.00,CLR,,0.00,WeatherDisplay:10.37,2013-05-06 22:40:00,
2013-05-06 18:45:00,65.2,47.1,30.19,NNW,334,0.0,0.0,52,0.00,CLR,,0.00,WeatherDisplay:10.37,2013-05-06 22:45:00,
2013-05-06 18:50:00,64.8,46.8,30.19,NNW,330,0.0,0.0,52,0.00,CLR,,0.00,WeatherDisplay:10.37,2013-05-06 22:50:00,
2013-05-06 18:55:00,65.0,46.9,30.19,NW,317,3.0,0.0,52,0.00,CLR,,0.00,WeatherDisplay:10.37,2013-05-06 22:55:00,
2013-05-06 19:00:00,64.4,46.4,30.19,NW,306,0.0,0.0,52,0.00,CLR,,0.00,WeatherDisplay:10.37,2013-05-06 23:00:00,
2013-05-06 19:05:00,64.6,46.6,30.19,West,280,0.0,0.0,52,0.00,CLR,,0.00,WeatherDisplay:10.37,2013-05-06 23:05:00,
2013-05-06 19:10:00,64.2,50.0,30.19,West,260,0.0,0.0,60,0.00,CLR,,0.00,WeatherDisplay:10.37,2013-05-06 23:10:00,
2013-05-06 19:15:00,63.8,49.7,30.20,West,260,0.0,0.0,60,0.00,CLR,,0.00,WeatherDisplay:10.37,2013-05-06 23:15:00,
2013-05-06 19:20:00,63.3,49.2,30.20,West,260,0.0,0.0,60,0.00,CLR,,0.00,WeatherDisplay:10.37,2013-05-06 23:20:00,
2013-05-06 19:25:00,62.8,48.7,30.20,West,260,0.0,0.0,60,0.00,CLR,,0.00,WeatherDisplay:10.37,2013-05-06 23:25:00,
2013-05-06 19:30:00,63.0,48.9,30.20,WSW,249,0.0,0.0,60,0.00,CLR,,0.00,WeatherDisplay:10.37,2013-05-06 23:30:00,
2013-05-06 19:35:00,62.9,48.8,30.20,WSW,237,0.0,0.0,60,0.00,CLR,,0.00,WeatherDisplay:10.37,2013-05-06 23:35:00,
2013-05-06 19:40:00,62.5,48.4,30.20,WSW,249,0.0,0.0,60,0.00,CLR,,0.00,WeatherDisplay:10.37,2013-05-06 23:40:00,
2013-05-06 19:45:00,61.9,47.8,30.20,North,352,0.0,0.0,60,0.00,CLR,,0.00,WeatherDisplay:10.37,2013-05-06 23:45:00,
2013-05-06 19:50:00,61.5,47.5,30.21,North,0,0.0,0.0,60,0.00,CLR,,0.00,WeatherDisplay:10.37,2013-05-06 23:50:00,
2013-05-06 19:55:00,61.4,47.4,30.21,North,0,0.0,0.0,60,0.00,CLR,,0.00,WeatherDisplay:10.37,2013-05-06 23:55:00,
2013-05-06 20:00:00,61.0,47.0,30.21,North,0,0.0,0.0,60,0.00,CLR,,0.00,WeatherDisplay:10.37,2013-05-07 00:00:00,
2013-05-06 20:05:00,60.4,46.5,30.21,North,0,0.0,0.0,60,0.00,CLR,,0.00,WeatherDisplay:10.37,2013-05-07 00:05:00,
2013-05-06 20:10:00,60.2,47.1,30.21,North,0,0.0,0.0,62,0.00,CLR,,0.00,WeatherDisplay:10.37,2013-05-07 00:10:00,
2013-05-06 20:15:00,59.8,46.7,30.22,North,0,0.0,0.0,62,0.00,CLR,,0.00,WeatherDisplay:10.37,2013-05-07 00:15:00,
2013-05-06 20:20:00,59.5,46.5,30.22,North,0,0.0,0.0,62,0.00,CLR,,0.00,WeatherDisplay:10.37,2013-05-07 00:20:00,
2013-05-06 20:25:00,59.2,46.2,30.22,North,0,0.0,0.0,62,0.00,CLR,,0.00,WeatherDisplay:10.37,2013-05-07 00:25:00,
2013-05-06 20:30:00,58.9,45.9,30.22,North,0,0.0,0.0,62,0.00,CLR,,0.00,WeatherDisplay:10.37,2013-05-07 00:30:00,
2013-05-06 20:35:00,58.6,45.7,30.22,North,0,0.0,0.0,62,0.00,CLR,,0.00,WeatherDisplay:10.37,2013-05-07 00:35:00,
2013-05-06 20:40:00,58.2,45.2,30.22,North,0,0.0,0.0,62,0.00,CLR,,0.00,WeatherDisplay:10.37,2013-05-07 00:40:00,
2013-05-06 20:45:00,58.0,45.0,30.22,North,0,0.0,0.0,62,0.00,CLR,,0.00,WeatherDisplay:10.37,2013-05-07 00:45:00,
2013-05-06 20:50:00,57.8,44.9,30.22,North,0,0.0,0.0,62,0.00,CLR,,0.00,WeatherDisplay:10.37,2013-05-07 00:50:00,
2013-05-06 20:55:00,57.6,44.6,30.23,North,0,0.0,0.0,62,0.00,CLR,,0.00,WeatherDisplay:10.37,2013-05-07 00:55:00,
2013-05-06 21:00:00,57.3,44.4,30.23,North,0,0.0,0.0,62,0.00,CLR,,0.00,WeatherDisplay:10.37,2013-05-07 01:00:00,
2013-05-06 21:05:00,57.1,44.2,30.23,North,0,0.0,0.0,62,0.00,CLR,,0.00,WeatherDisplay:10.37,2013-05-07 01:05:00,
2013-05-06 21:10:00,56.9,45.7,30.23,North,0,0.0,0.0,66,0.00,CLR,,0.00,WeatherDisplay:10.37,2013-05-07 01:10:00,
2013-05-06 21:15:00,56.6,45.4,30.24,North,0,0.0,0.0,66,0.00,CLR,,0.00,WeatherDisplay:10.37,2013-05-07 01:15:00,
2013-05-06 21:20:00,56.3,45.0,30.24,North,0,0.0,0.0,66,0.00,CLR,,0.00,WeatherDisplay:10.37,2013-05-07 01:20:00,
2013-05-06 21:25:00,56.0,44.8,30.24,North,0,0.0,0.0,66,0.00,CLR,,0.00,WeatherDisplay:10.37,2013-05-07 01:25:00,
2013-05-06 21:30:00,55.8,44.6,30.24,North,0,0.0,0.0,66,0.00,CLR,,0.00,WeatherDisplay:10.37,2013-05-07 01:30:00,
2013-05-06 21:35:00,55.5,44.3,30.24,North,0,0.0,0.0,66,0.00,CLR,,0.00,WeatherDisplay:10.37,2013-05-07 01:35:00,
2013-05-06 21:40:00,55.3,44.1,30.24,North,0,0.0,0.0,66,0.00,CLR,,0.00,WeatherDisplay:10.37,2013-05-07 01:40:00,
2013-05-06 21:45:00,55.0,43.9,30.24,North,0,0.0,0.0,66,0.00,CLR,,0.00,WeatherDisplay:10.37,2013-05-07 01:45:00,
2013-05-06 21:50:00,54.9,43.7,30.24,North,0,0.0,0.0,66,0.00,CLR,,0.00,WeatherDisplay:10.37,2013-05-07 01:50:00,
2013-05-06 22:00:00,54.5,43.3,30.25,North,0,0.0,0.0,66,0.00,CLR,,0.00,WeatherDisplay:10.37,2013-05-07 02:00:00,
2013-05-06 22:05:00,54.3,43.2,30.25,North,0,0.0,0.0,66,0.00,CLR,,0.00,WeatherDisplay:10.37,2013-05-07 02:05:00,
2013-05-06 22:10:00,54.0,44.8,30.25,North,0,0.0,0.0,71,0.00,CLR,,0.00,WeatherDisplay:10.37,2013-05-07 02:10:00,
2013-05-06 22:15:00,53.9,44.7,30.25,North,0,0.0,0.0,71,0.00,CLR,,0.00,WeatherDisplay:10.37,2013-05-07 02:15:00,
2013-05-06 22:20:00,53.7,44.5,30.25,North,0,0.0,0.0,71,0.00,CLR,,0.00,WeatherDisplay:10.37,2013-05-07 02:20:00,
2013-05-06 22:30:00,53.4,44.2,30.24,North,0,0.0,0.0,71,0.00,CLR,,0.00,WeatherDisplay:10.37,2013-05-07 02:30:00,
2013-05-06 22:35:00,53.1,44.0,30.25,North,0,0.0,0.0,71,0.00,CLR,,0.00,WeatherDisplay:10.37,2013-05-07 02:35:00,
2013-05-06 22:40:00,52.9,43.7,30.24,North,0,0.0,0.0,71,0.00,CLR,,0.00,WeatherDisplay:10.37,2013-05-07 02:40:00,
2013-05-06 22:50:00,52.6,43.5,30.24,North,0,0.0,0.0,71,0.00,CLR,,0.00,WeatherDisplay:10.37,2013-05-07 02:50:00,
2013-05-06 22:55:00,52.4,43.2,30.24,North,0,0.0,0.0,71,0.00,CLR,,0.00,WeatherDisplay:10.37,2013-05-07 02:55:00,
2013-05-06 23:00:00,52.2,43.1,30.24,North,0,0.0,0.0,71,0.00,CLR,,0.00,WeatherDisplay:10.37,2013-05-07 03:00:00,
2013-05-06 23:05:00,52.1,43.0,30.24,North,0,0.0,0.0,71,0.00,CLR,,0.00,WeatherDisplay:10.37,2013-05-07 03:05:00,
2013-05-06 23:15:00,51.7,46.4,30.24,North,0,0.0,0.0,82,0.00,CLR,,0.00,WeatherDisplay:10.37,2013-05-07 03:15:00,
2013-05-06 23:20:00,51.5,46.2,30.24,North,0,0.0,0.0,82,0.00,CLR,,0.00,WeatherDisplay:10.37,2013-05-07 03:20:00,
2013-05-06 23:25:00,51.2,45.9,30.24,North,0,0.0,0.0,82,0.00,CLR,,0.00,WeatherDisplay:10.37,2013-05-07 03:25:00,
2013-05-06 23:30:00,51.1,45.8,30.24,North,0,0.0,0.0,82,0.00,CLR,,0.00,WeatherDisplay:10.37,2013-05-07 03:30:00,
2013-05-06 23:35:00,51.0,45.7,30.24,North,0,0.0,0.0,82,0.00,CLR,,0.00,WeatherDisplay:10.37,2013-05-07 03:35:00,
2013-05-06 23:40:00,50.9,45.6,30.24,North,0,0.0,0.0,82,0.00,CLR,,0.00,WeatherDisplay:10.37,2013-05-07 03:40:00,
2013-05-06 23:45:00,50.7,45.4,30.24,North,0,0.0,0.0,82,0.00,CLR,,0.00,WeatherDisplay:10.37,2013-05-07 03:45:00,
2013-05-06 23:50:00,50.6,45.3,30.24,North,0,0.0,0.0,82,0.00,CLR,,0.00,WeatherDisplay:10.37,2013-05-07 03:50:00,
2013-05-06 23:55:00,50.4,45.1,30.24,North,0,0.0,0.0,82,0.00,CLR,,0.00,WeatherDisplay:10.37,2013-05-07 03:55:00,